Location: Étouvelles
(49.5207°N, 3.5808°E)
Time: 07:22:57
(UTC+00:00)

USA 290 - Pass Details

Date: 03 February 2023
Orbit: 401 x 409 km, 73.6° (Epoch: 13 March)

Event Time Altitude Azimuth Distance (km) Brightness Sun altitude
Rises 17:27:49 0° 214° (SW) 2,340 6.9 -7.4°
Reaches altitude 10° 17:29:53 10° 220° (SW) 1,486 6.0 -7.8°
Maximum altitude 17:33:04 51° 298° (WNW) 533 3.1 -8.3°
Drops below altitude 10° 17:36:18 10° 15° (NNE) 1,507 4.8 -8.8°
Enters shadow 17:38:16 - 21° (NNE) 2,316 5.7 -9.1°
